Wind_Speed
17 18 21 22 26 30 30 33 32 31 32 32 30 31 34 33 30 25 23 19 16 15 15 17 18 18 20
14 17 23 28 35 30 34 32 33 33 34 34 34 33 35 33 29 24 21 19 19 17 18 18 19 18 16
16 21 21 23 25 30 33 34 35 35 35 37 35 33 35 31 29 24 23 21 20 18 18 18 18 17 15
21 18 19 25 29 28 30 33 34 34 35 35 32 31 34 30 28 24 23 20 19 18 18 17 16 17 14
16 15 16 16 15 22 22 23 26 25 25 25 24 27 29 26 23 25 22 21 20 18 17 16 15 15 13
4 3 6 7 13 17 16 9 3 11 12 20 21 27 30 28 24 24 21 20 19 16 17 16 14 14 12
6 7 8 9 11 13 14 13 9 17 15 15 19 24 26 24 23 23 22 21 18 16 16 15 15 11 7
9 11 12 13 13 14 15 13 15 15 13 6 15 18 19 20 20 20 20 18 17 17 16 15 13 9 7
10 12 13 12 13 12 13 10 7 8 15 9 8 16 14 18 20 20 19 18 16 16 17 15 13 11 10
11 11 12 13 13 15 17 17 8 3 14 18 12 10 3 15 22 21 18 18 17 16 17 15 15 16 14
14 15 15 15 15 15 18 19 17 11 8 22 13 14 6 3 10 19 18 16 16 17 18 17 15 19 21
14 16 18 19 20 18 19 21 23 23 21 12 9 21 13 8 6 12 17 17 15 15 16 14 13 18 23
17 18 19 19 20 20 19 19 20 20 21 21 23 18 19 9 7 9 9 15 16 18 14 12 14 18 21
16 18 19 19 21 20 20 20 18 19 17 18 23 26 20 17 14 12 15 7 16 19 14 12 13 19 23
18 20 22 21 21 20 20 21 17 14 18 19 18 17 19 22 13 18 20 17 11 17 15 14 14 15 19
19 19 20 20 20 22 20 19 17 17 17 21 19 14 12 14 18 18 19 18 15 15 16 14 12 14 16
19 19 19 20 19 19 18 17 17 18 19 22 21 14 5 5 9 17 21 20 17 16 18 15 10 14 16
Wind_Direction
238 253 266 268 270 271 265 257 255 259 268 267 277 270 256 256 254 255 257 261 266 273 278 284 291 297 300
248 252 257 261 276 264 258 253 251 262 266 270 277 269 260 250 247 245 244 257 264 270 275 282 291 287 290
250 261 256 255 253 251 252 253 254 262 269 273 272 264 251 251 244 236 244 251 257 268 273 279 288 284 285
246 236 244 248 246 249 253 256 261 271 278 275 271 256 247 246 239 237 241 248 256 263 270 277 285 281 279
236 237 234 230 228 248 250 268 279 283 281 279 269 254 241 235 236 236 243 247 254 259 268 281 281 279 278
251 253 277 264 276 272 273 266 288 293 272 270 268 254 246 237 231 238 244 254 258 259 270 281 275 269 277
277 285 288 292 293 287 281 271 251 275 277 271 268 255 249 242 235 238 247 251 251 257 266 275 271 264 278
307 301 294 287 283 282 283 276 263 266 250 237 258 238 240 233 233 235 243 245 252 255 261 266 258 243 243
308 302 300 292 281 271 259 230 243 234 218 216 239 227 233 232 230 233 238 241 244 257 267 269 253 219 207
320 311 302 297 287 274 263 226 212 237 228 201 203 201 216 235 230 231 234 232 235 247 258 269 250 209 187
314 316 315 308 294 280 269 259 238 247 281 206 206 201 203 184 220 221 226 229 231 236 243 251 240 198 180
319 315 318 319 319 305 282 267 259 258 260 254 232 214 196 176 191 206 215 221 225 237 238 230 231 203 199
329 320 315 314 313 309 301 285 270 264 261 254 234 233 227 205 183 193 191 218 217 232 231 215 209 193 172
321 315 317 319 314 309 296 291 268 261 253 239 236 231 226 219 207 201 201 185 219 227 223 210 210 200 195
326 322 318 317 309 310 297 275 249 250 250 242 230 230 228 223 204 216 198 197 204 210 213 209 203 202 205
322 314 310 305 300 297 285 265 254 251 241 237 219 207 221 233 228 208 199 197 195 197 215 214 188 189 191
313 311 305 300 294 284 276 263 255 252 243 230 209 196 182 201 188 214 200 200 187 191 210 213 209 184 176
Height
770 772 776 779 780 780 779 778 778 778 778 778 775 775 775 774 775 775 775 775 775 773 771 771 769 770 770
764 766 768 771 772 771 771 770 770 771 772 772 770 769 768 767 768 770 770 770 769 767 767 767 764 763 762
756 759 761 762 763 763 762 763 763 764 765 764 762 761 761 760 761 762 764 764 764 763 763 761 759 758 757
750 752 754 755 756 756 756 756 756 757 756 755 755 754 755 755 757 759 759 759 760 759 758 756 754 752 750
746 748 750 749 749 748 749 750 750 749 749 749 749 751 750 750 751 754 756 755 755 755 755 752 750 748 745
741 743 744 745 746 746 746 747 747 744 745 743 744 745 746 746 747 751 753 754 753 751 751 750 747 745 742
742 742 742 743 744 743 742 742 742 743 744 741 741 739 739 744 748 748 750 751 750 749 748 748 746 743 741
739 739 739 739 739 739 738 737 737 738 739 739 738 737 736 739 743 744 749 748 748 748 747 745 743 744 742
735 736 735 735 735 734 733 735 736 733 732 734 736 736 736 737 740 741 744 745 745 746 746 743 741 742 742
732 732 732 731 731 730 729 731 731 729 726 731 731 733 736 734 734 737 740 740 741 742 742 740 740 739 739
730 729 728 727 727 727 726 726 727 726 725 726 726 728 731 732 732 733 736 736 737 737 738 739 736 736 738
726 725 724 723 724 724 723 722 721 721 722 723 723 725 726 729 730 730 731 732 733 733 735 734 733 735 736
723 722 721 721 721 720 719 717 716 715 716 717 717 720 723 722 724 726 728 729 730 733 733 732 732 733 735
722 721 719 718 717 717 715 714 713 711 712 713 714 715 717 719 719 722 724 725 727 730 732 731 730 731 733
720 718 716 715 713 712 711 711 710 708 708 709 711 712 713 715 717 719 720 721 724 728 731 730 729 730 732
718 717 715 713 710 708 707 707 706 704 704 704 706 708 711 712 713 715 718 719 721 724 730 732 730 729 731
716 714 711 709 707 704 703 702 701 700 700 700 701 704 707 708 709 711 713 717 718 721 727 730 730 731 732